When you browse on this site, cookies collect data to enhance your experience and personalize the content and advertising you see.
Visit our Privacy Policy to learn more. By continuing to use the site, you agree to this use of cookies and data.
  • en Suisse
  • Liste des pays
  • À 7 jours
  • Température de l'eau
  • Carte satellitaire
  • Carte météo
  • Widgets météo
  • user-avatar
    Se connecter

    Météo par heure à Yantai

    Ce jour, 24 Juillet, Mercredi

    Heure Température Précipitation Vent Pression Humidité
    00:00 +28°C° 0.2 mm 3 m/s 747 mmHg 93%
    01:00 +28°C° 0.2 mm 2 m/s 747 mmHg 94%
    02:00 +28°C° 0 mm 2 m/s 747 mmHg 95%
    03:00 +28°C° 0.1 mm 2 m/s 747 mmHg 95%
    04:00 +28°C° 0.1 mm 2 m/s 747 mmHg 94%
    05:00 +28°C° 0.1 mm 1 m/s 747 mmHg 94%
    06:00 +29°C° 0.2 mm 1 m/s 747 mmHg 89%
    07:00 +30°C° 0.2 mm 1 m/s 747 mmHg 83%
    08:00 +32°C° 0.2 mm 1 m/s 748 mmHg 77%
    09:00 +32°C° 0 mm 1 m/s 748 mmHg 73%
    10:00 +34°C° 0 mm 2 m/s 748 mmHg 69%
    11:00 +35°C° 0 mm 2 m/s 748 mmHg 65%
    12:00 +36°C° 0 mm 2 m/s 748 mmHg 63%
    13:00 +36°C° 0 mm 2 m/s 748 mmHg 61%
    14:00 +36°C° 0 mm 3 m/s 748 mmHg 60%
    15:00 +36°C° 0 mm 3 m/s 748 mmHg 62%
    16:00 +35°C° 0 mm 3 m/s 747 mmHg 64%
    17:00 +35°C° 0 mm 2 m/s 747 mmHg 66%
    18:00 +34°C° 0 mm 2 m/s 748 mmHg 73%
    19:00 +31°C° 0 mm 2 m/s 748 mmHg 79%
    20:00 +30°C° 0 mm 1 m/s 748 mmHg 85%
    21:00 +29°C° 0 mm 1 m/s 748 mmHg 87%
    22:00 +29°C° 0 mm 2 m/s 748 mmHg 89%
    23:00 +29°C° 0 mm 2 m/s 748 mmHg 91%

    Demain, 25 Juillet, Jeudi

    Heure Température Précipitation Vent Pression Humidité
    00:00 +29°C° 0 mm 2 m/s 748 mmHg 91%
    01:00 +28°C° 0 mm 1 m/s 748 mmHg 90%
    02:00 +28°C° 0 mm 1 m/s 748 mmHg 90%
    03:00 +28°C° 0 mm 1 m/s 748 mmHg 90%
    04:00 +28°C° 0 mm 2 m/s 748 mmHg 89%
    05:00 +28°C° 0 mm 2 m/s 748 mmHg 89%
    06:00 +29°C° 0 mm 1 m/s 749 mmHg 82%
    07:00 +31°C° 0 mm 1 m/s 749 mmHg 74%
    08:00 +33°C° 0 mm 1 m/s 750 mmHg 67%
    09:00 +34°C° 0 mm 1 m/s 749 mmHg 63%
    10:00 +35°C° 0 mm 2 m/s 749 mmHg 58%
    11:00 +36°C° 0 mm 2 m/s 749 mmHg 54%
    12:00 +36°C° 0 mm 3 m/s 749 mmHg 57%
    13:00 +35°C° 0 mm 3 m/s 749 mmHg 60%
    14:00 +34°C° 0 mm 3 m/s 749 mmHg 63%
    15:00 +35°C° 0 mm 3 m/s 749 mmHg 60%
    16:00 +35°C° 0 mm 3 m/s 748 mmHg 58%
    17:00 +36°C° 0 mm 3 m/s 748 mmHg 55%
    18:00 +34°C° 0 mm 3 m/s 748 mmHg 62%
    19:00 +32°C° 0 mm 2 m/s 748 mmHg 68%
    20:00 +31°C° 0 mm 2 m/s 748 mmHg 75%
    21:00 +30°C° 0 mm 2 m/s 749 mmHg 79%
    22:00 +29°C° 0 mm 2 m/s 749 mmHg 82%
    23:00 +29°C° 0 mm 3 m/s 749 mmHg 85%

    Après-demain, 26 Juillet, Vendredi

    Heure Température Précipitation Vent Pression Humidité
    00:00 +29°C° 0 mm 2 m/s 749 mmHg 85%
    01:00 +28°C° 0 mm 2 m/s 748 mmHg 86%
    02:00 +28°C° 0 mm 1 m/s 748 mmHg 86%
    03:00 +28°C° 0 mm 1 m/s 748 mmHg 86%
    04:00 +28°C° 0 mm 1 m/s 748 mmHg 85%
    05:00 +28°C° 0 mm 1 m/s 748 mmHg 85%
    06:00 +29°C° 0 mm 2 m/s 748 mmHg 78%
    07:00 +31°C° 0 mm 2 m/s 749 mmHg 72%
    08:00 +32°C° 0 mm 2 m/s 749 mmHg 66%
    09:00 +35°C° 0 mm 2 m/s 749 mmHg 59%
    10:00 +36°C° 0 mm 3 m/s 749 mmHg 52%
    11:00 +38°C° 0 mm 3 m/s 749 mmHg 45%
    12:00 +38°C° 0 mm 4 m/s 749 mmHg 44%
    13:00 +40°C° 0 mm 4 m/s 749 mmHg 42%
    14:00 +40°C° 0 mm 5 m/s 749 mmHg 41%
    15:00 +40°C° 0 mm 5 m/s 749 mmHg 41%
    16:00 +39°C° 0 mm 5 m/s 748 mmHg 41%
    17:00 +37°C° 0 mm 4 m/s 748 mmHg 41%
    18:00 +35°C° 0 mm 4 m/s 749 mmHg 51%
    19:00 +33°C° 0 mm 4 m/s 749 mmHg 61%
    20:00 +30°C° 0 mm 3 m/s 749 mmHg 71%
    21:00 +30°C° 0 mm 3 m/s 749 mmHg 74%
    22:00 +29°C° 0 mm 3 m/s 749 mmHg 78%
    23:00 +28°C° 0 mm 3 m/s 749 mmHg 82%

    27 Juillet, Samedi

    Heure Température Précipitation Vent Pression Humidité
    00:00 +28°C° 0 mm 2 m/s 749 mmHg 82%
    01:00 +28°C° 0 mm 2 m/s 749 mmHg 83%
    02:00 +28°C° 0 mm 1 m/s 749 mmHg 84%
    03:00 +28°C° 0 mm 1 m/s 749 mmHg 83%
    04:00 +28°C° 0 mm 1 m/s 749 mmHg 82%
    05:00 +28°C° 0 mm 1 m/s 749 mmHg 81%
    06:00 +30°C° 0.1 mm 2 m/s 749 mmHg 75%
    07:00 +31°C° 0.1 mm 2 m/s 749 mmHg 69%
    08:00 +34°C° 0.1 mm 3 m/s 749 mmHg 62%
    09:00 +35°C° 0.7 mm 3 m/s 749 mmHg 59%
    10:00 +36°C° 0.7 mm 4 m/s 749 mmHg 56%
    11:00 +37°C° 0.7 mm 5 m/s 749 mmHg 53%
    12:00 +37°C° 0.8 mm 5 m/s 749 mmHg 53%
    13:00 +38°C° 0.8 mm 6 m/s 749 mmHg 53%
    14:00 +38°C° 0.8 mm 6 m/s 748 mmHg 53%
    15:00 +38°C° 0.4 mm 6 m/s 748 mmHg 55%
    16:00 +36°C° 0.4 mm 6 m/s 748 mmHg 57%
    17:00 +36°C° 0.4 mm 5 m/s 748 mmHg 59%
    18:00 +34°C° 0 mm 5 m/s 748 mmHg 66%
    19:00 +32°C° 0 mm 5 m/s 748 mmHg 73%
    20:00 +29°C° 0 mm 4 m/s 748 mmHg 80%
    21:00 +29°C° 0 mm 5 m/s 748 mmHg 83%
    22:00 +28°C° 0 mm 5 m/s 749 mmHg 86%
    23:00 +28°C° 0 mm 5 m/s 749 mmHg 88%

    28 Juillet, Dimanche

    Heure Température Précipitation Vent Pression Humidité
    00:00 +28°C° 0 mm 5 m/s 749 mmHg 89%
    01:00 +28°C° 0 mm 4 m/s 749 mmHg 89%
    02:00 +27°C° 0 mm 4 m/s 748 mmHg 90%
    03:00 +27°C° 0 mm 4 m/s 748 mmHg 90%
    04:00 +27°C° 0 mm 3 m/s 748 mmHg 90%
    05:00 +27°C° 0 mm 3 m/s 748 mmHg 90%
    06:00 +29°C° 0 mm 3 m/s 749 mmHg 81%
    07:00 +31°C° 0 mm 3 m/s 749 mmHg 72%
    08:00 +34°C° 0 mm 4 m/s 749 mmHg 64%
    09:00 +35°C° 0 mm 4 m/s 749 mmHg 60%
    10:00 +36°C° 0 mm 4 m/s 749 mmHg 56%
    11:00 +38°C° 0 mm 4 m/s 749 mmHg 52%
    12:00 +37°C° 0.7 mm 5 m/s 749 mmHg 54%
    13:00 +37°C° 0.7 mm 5 m/s 749 mmHg 57%
    14:00 +38°C° 0.7 mm 6 m/s 748 mmHg 59%
    15:00 +36°C° 0.1 mm 6 m/s 748 mmHg 61%
    16:00 +36°C° 0.1 mm 6 m/s 748 mmHg 63%
    17:00 +35°C° 0.1 mm 7 m/s 748 mmHg 65%
    18:00 +34°C° 0 mm 6 m/s 748 mmHg 71%
    19:00 +32°C° 0 mm 6 m/s 749 mmHg 78%
    20:00 +30°C° 0 mm 5 m/s 749 mmHg 85%
    21:00 +29°C° 0 mm 5 m/s 749 mmHg 87%
    22:00 +29°C° 0 mm 4 m/s 749 mmHg 89%
    23:00 +29°C° 0 mm 4 m/s 749 mmHg 91%

    29 Juillet, Lundi

    Heure Température Précipitation Vent Pression Humidité
    00:00 +29°C° 0.1 mm 4 m/s 749 mmHg 91%
    01:00 +28°C° 0.1 mm 4 m/s 748 mmHg 92%
    02:00 +28°C° 0.1 mm 4 m/s 748 mmHg 92%
    03:00 +28°C° 0.7 mm 4 m/s 748 mmHg 92%
    04:00 +29°C° 0.7 mm 4 m/s 748 mmHg 91%
    05:00 +29°C° 0.7 mm 3 m/s 748 mmHg 91%
    06:00 +30°C° 0 mm 4 m/s 748 mmHg 84%
    07:00 +33°C° 0 mm 4 m/s 749 mmHg 78%
    08:00 +34°C° 0 mm 4 m/s 749 mmHg 71%
    09:00 +36°C° 0.4 mm 5 m/s 749 mmHg 65%
    10:00 +37°C° 0.4 mm 5 m/s 748 mmHg 58%
    11:00 +40°C° 0.4 mm 5 m/s 748 mmHg 51%
    12:00 +40°C° 1.5 mm 5 m/s 748 mmHg 51%
    13:00 +40°C° 1.5 mm 4 m/s 748 mmHg 52%
    14:00 +38°C° 1.5 mm 4 m/s 747 mmHg 52%
    15:00 +37°C° 2.5 mm 4 m/s 747 mmHg 58%
    16:00 +36°C° 2.5 mm 4 m/s 747 mmHg 63%
    17:00 +35°C° 2.5 mm 4 m/s 746 mmHg 69%
    18:00 +34°C° 1.5 mm 4 m/s 747 mmHg 73%
    19:00 +33°C° 1.5 mm 4 m/s 747 mmHg 78%
    20:00 +32°C° 1.5 mm 5 m/s 747 mmHg 82%
    21:00 +30°C° 0.8 mm 5 m/s 747 mmHg 84%
    22:00 +30°C° 0.8 mm 4 m/s 747 mmHg 86%
    23:00 +30°C° 0.8 mm 4 m/s 747 mmHg 87%
    Voir plus